DMSP 5D-2 F13 DEB, 40434

Orbit data source: Space-Track

DMSP 5D-2 F13 DEB, 40434 is space debris in SSO originally from a launch on Fri, 24 Mar 1995 UTC launched from the Air Force Western Test Range (AFWTR). Debris objects in space refer to the collection of defunct objects orbiting the Earth. Examples of debris include non-operational satellites, rocket bodies, and fragments generated from explosions, collisions, or faulty payload assembly.

Loading next visibility...
Identifier
40434, 1995-015AL
Orbit
SSO
Last TLE update
8 hours ago
Origin
Manufacturer
Unknown
Mission
Spacecraft
Bus & Motor
Unknown
Mass
Unknown
Launch date (UTC)
1995-03-24 (30 years ago)
Launch vehicle
Unknown
Launch site
Air Force Western Test Range (AFWTR)
Object type
Payload
Rocket body
Debris
Shape & HBR
Unknown
Radar Cross Section
Small (<0.1 m²)

Expand to show TLE details & history

TLE from 8 hours ago
0 DMSP 5D-2 F13 DEB
1 40434U 95015AL  25182.88441345  .00001303  00000-0  62873-3 0  9996
2 40434  99.0839 160.5302 0175490 124.0297 237.7680 14.12626450529878
Epoch: 2025-07-01T21:13Z
TLE epoch observation values (Epoch: 2025-07-01T21:13:33.322Z)
Latitude
0.00005°
Longitude
-78.03211°
Altitude
922.534 km
Speed
7.355 km/s
True Right ascension
10h 42m 07s
True Declination
0° 00' 00"
Sunlit
Object was in daylight at epoch
Visualization orbit readout
Latitude
19.18837°
Longitude
105.45925°
Altitude
751.224 km
Speed
7.533 km/s
Apparent Right ascension
01h 10m 06s
Apparent Declination
-11° 11' 00"
Sunlit
Object is in daylight
Visualization observer readout
Local Sidereal Time
16:27:37
Azimuth
70.679° E
Elevation
-37.903°
Doppler factor
1
Orbital elements
Apogee altitude
974.388 km
Perigee altitude
720.779 km
Semi-major axis
7,225.72 km
Eccentricity
0.01755
Inclination
99.0839°
RAAN
160.5302°
Arg. of periapsis
124.0297°
True anomaly
Unknown
Mean anomaly
237.768°
Eccentric anomaly
Unknown
Mean motion
3.53363 °/min
Orbital period
101.88 mins
BSTAR
0.00062873
Loading maneuver chart data...
Loading SW <> Apogee altitude chart data...

DMSP 5D-2 F13 DEB Visibility forecast

Observer location: undefined°, undefined°

Span
Click to sort rows by Start time (UTC) header in descending order
Start Az.
Max El. time (UTC)
Max El. Az.
Max El.
End time (UTC)
End Az.
9 mins2025-07-02 11:24:10.156Z16.206° NNE2025-07-02 11:28:10.156Z56.545° ENE44.432°2025-07-02 11:33:10.156Z192.271° SSW
5 mins2025-07-02 21:12:10.156Z93.705° ESE2025-07-02 21:14:10.156Z67.361° ENE18.13°2025-07-02 21:17:10.156Z27.43° NE
8 mins2025-07-02 22:51:10.156Z187.211° SSW2025-07-02 22:55:10.156Z279.124° WNW38.834°2025-07-02 22:59:10.156Z334.576° NNW
|